This is the latest recevied weather packets stored in our database for station/object M0OAB-1. If no packets are shown the sender has not sent any weather packets the latest 10 day(s).
| Time | Temp. | Humidity | Pressure | Rain* | Wind** | Luminosity | Snow |
|---|---|---|---|---|---|---|---|
| 1778179205 | 12.78° C | 63% | 1001.8 hPa | 0 mm | - | - | - |
| 1778178485 | 12.78° C | 62% | 1001.7 hPa | 0 mm | - | - | - |
| 1778177406 | 13.33° C | 62% | 1001.6 hPa | 0 mm | - | - | - |
| 1778175365 | 14.44° C | 60% | 1001.4 hPa | 0 mm | - | - | - |
| 1778174886 | 14.44° C | 61% | 1001.3 hPa | 0 mm | - | - | - |
| 1778173446 | 15° C | 60% | 1001.4 hPa | 0 mm | - | - | - |
| 1778172725 | 15° C | 57% | 1001.2 hPa | 0 mm | - | - | - |
| 1778172485 | 15° C | 56% | 1001.3 hPa | 0 mm | - | - | - |
| 1778171286 | 15° C | 58% | 1001.3 hPa | 0 mm | - | - | - |
| 1778170925 | 15.56° C | 58% | 1001.4 hPa | 0 mm | - | - | - |
| 1778170685 | 15.56° C | 59% | 1001.3 hPa | 0 mm | - | - | - |
| 1778170325 | 15° C | 57% | 1001.3 hPa | 0 mm | - | - | - |
| 1778169966 | 15.56° C | 55% | 1001.4 hPa | 0 mm | - | - | - |
| 1778166125 | 16.11° C | 59% | 1001.3 hPa | 0 mm | - | - | - |
| 1778166006 | 15.56° C | 59% | 1001.3 hPa | 0 mm | - | - | - |
| 1778165885 | 15.56° C | 59% | 1001.5 hPa | 0 mm | - | - | - |
| 1778165765 | 15.56° C | 57% | 1001.3 hPa | 0 mm | - | - | - |
| 1778165045 | 15.56° C | 60% | 1001.4 hPa | 0 mm | - | - | - |
| 1778164325 | 15° C | 60% | 1001.4 hPa | 0 mm | - | - | - |
| 1778163965 | 15° C | 58% | 1001.3 hPa | 0 mm | - | - | - |
| 1778163726 | 15° C | 60% | 1001.5 hPa | 0 mm | - | - | - |
| 1778163605 | 15° C | 60% | 1001.6 hPa | 0 mm | - | - | - |
| 1778163365 | 15° C | 60% | 1001.5 hPa | 0 mm | - | - | - |
| 1778162525 | 15° C | 60% | 1001.6 hPa | 0 mm | - | - | - |
| 1778161805 | 15.56° C | 59% | 1001.7 hPa | 0 mm | - | - | - |
* Rain latest hour (hover to see other rain measurements)
** Current wind speed in m/s (hover to see current wind gust speed)